Location: Luxembourg
(49.6117°N, 6.1300°E)
Time: 11:50:22
(UTC+02:00)

Envisat - Pass Details

Date: 26 January 2019
Orbit: 764 x 766 km, 98.1° (Epoch: 15 October)

Event Time Altitude Azimuth Distance (km) Brightness Sun altitude
Rises 20:20:24 0° 201° (SSW) 3,221 6.4 -29.0°
Reaches altitude 10° 20:23:08 10° 216° (SW) 2,300 5.8 -29.4°
Maximum altitude 20:27:10 23° 269° (W) 1,571 5.2 -30.0°
Drops below altitude 10° 20:31:13 10° 321° (NW) 2,313 6.0 -30.7°
Sets 20:34:00 0° 336° (NNW) 3,245 6.6 -31.1°
